Regional Weather Roundup
Issued by NWS State College, PA

Home | Current Version | Previous Version | Graphics & Text | Print | Product List | Glossary Off
Versions: 1 2 3 4 5 6 7 8 9 10 11 12 13 14 15 16 17 18 19 20 21 22 23 24 25 26 27 28 29 30 31 32 33 34 35 36 37 38 39 40 41 42 43 44 45 46 47 48 49 50

000
ASUS41 KCTP 252003
RWRCTP

REGIONAL WEATHER ROUNDUP
NATIONAL WEATHER SERVICE STATE COLLEGE PA
400 PM EDT SAT OCT 25 2014

Note: "fair" indicates few or no clouds below 12,000 feet with no
significant weather and/or obstructions to visibility.

* = STATION THAT DOES NOT REPORT PRECIPITATION /E.G. RAIN...SNOW...ETC/
    THUNDER OR FOG.

PAZ002>004-007>009-013>016-020>023-029>032-252100-
WESTERN PENNSYLVANIA

CITY           SKY/WX    TMP DP  RH WIND       PRES   REMARKS
ERIE           CLOUDY    59  52  77 W15G23    29.72F
MEADVILLE      PTSUNNY   65  50  58 W17G24    29.73F
FRANKLIN*      PTSUNNY   64  48  55 W12G24    29.75F
NEW CASTLE       N/A     68  53  58 W13G20    29.77F
BEAVER COUNTY  CLOUDY    66  52  59 SW12G18   29.78F
BUTLER*        CLOUDY    64  50  59 SW17G23   29.79F
PITTSBURGH INT PTSUNNY   66  50  56 SW14G23   29.78F
PITTSBURGH     CLOUDY    66  46  48 SW14G24   29.78F
INDIANA*       PTSUNNY   64  50  59 W15G29    29.80F
LATROBE        PTSUNNY   64  52  63 SW12G23   29.81F
WASHINGTON CO* SUNNY     64  48  55 SW13G23   29.83F
$$

PAZ004>006-010>012-017>019-024>028-033>037-041-042-045-046-049>053-252100-
CENTRAL PENNSYLVANIA

CITY           SKY/WX    TMP DP  RH WIND       PRES   REMARKS
BRADFORD       CLOUDY    60  46  59 W10G21    29.71F
DUBOIS         CLOUDY    60  49  66 SW13      29.74F
CLEARFIELD     CLOUDY    60  48  64 SW9       29.74F
JOHNSTOWN      SUNNY     61  45  55 W20G26    29.79F
ALTOONA        MOSUNNY   66  46  48 W16       29.77F
STATE COLLEGE  NOT AVBL
WILLIAMSPORT   PTSUNNY   68  44  42 W10G23    29.67F
SELINSGROVE    SUNNY     70  45  40 VRB6G17   29.70F
FT INDIANTOWN  MOSUNNY   69  46  44 SW16      29.72F
CAPITAL CITY   SUNNY     70  45  40 W15G23    29.72F
HARRISBURG     MOSUNNY   69  45  41 SW10      29.72F
YORK           SUNNY     70  44  39 W9G17     29.74F
$$

PAZ038>040-043-044-047-048-054-055-060>062-067>071-252100-
EASTERN PENNSYLVANIA

CITY           SKY/WX    TMP DP  RH WIND       PRES   REMARKS
SCRANTON       SUNNY     66  42  41 SW14G21   29.67F
MOUNT POCONO   SUNNY     60  40  47 W17G23    29.70F
ALLENTOWN      SUNNY     68  43  40 SW15      29.70F
QUAKERTOWN*    CLEAR     66  45  45 W9G16     29.73F
READING        SUNNY     68  42  38 SW14G22   29.72F
LANCASTER      SUNNY     67  43  41 SW14      29.73F
COATESVILLE    CLEAR     66  43  42 W9        29.76F
POTTSTOWN      SUNNY     67  43  41 W12G18    29.74F
BLUE BELL      SUNNY     68  45  42 W10G16    29.73F
DOYLESTOWN     SUNNY     66  42  41 VRB7G21   29.71F
WILLOW GROVE   NOT AVBL
NORTH PHILA    SUNNY     70  40  33 W14       29.74F
PHILADELPHIA   MOSUNNY   70  45  40 W9        29.74F
$$



USA.gov is the U.S. government's official web portal to all federal, state and local government web resources and services.